Time,TemperatureF,DewpointF,PressureIn,WindDirection,WindDirectionDegrees,WindSpeedMPH,WindSpeedGustMPH,Humidity,HourlyPrecipIn,Conditions,Clouds,dailyrainin,SoftwareType,DateUTC
2013-07-21 00:00:00,66.7,63.7,29.89,East,84,1.0,1.0,90,0.00,,,0.00,Wunderground v.1.15,2013-07-21 05:00:00,
2013-07-21 00:05:00,66.6,63.6,29.89,East,81,1.0,1.0,90,0.00,,,0.00,Wunderground v.1.15,2013-07-21 05:05:00,
2013-07-21 00:09:00,66.5,63.5,29.89,NE,49,1.0,2.0,90,0.00,,,0.00,Wunderground v.1.15,2013-07-21 05:09:00,
2013-07-21 00:15:00,66.4,63.4,29.89,ENE,68,1.0,2.0,90,0.00,,,0.00,Wunderground v.1.15,2013-07-21 05:15:00,
2013-07-21 00:20:00,66.3,63.3,29.89,ENE,68,1.0,1.0,90,0.00,,,0.00,Wunderground v.1.15,2013-07-21 05:20:00,
2013-07-21 00:25:00,66.3,63.3,29.88,ENE,59,2.0,2.0,90,0.00,,,0.00,Wunderground v.1.15,2013-07-21 05:25:00,
2013-07-21 00:34:00,66.1,63.1,29.89,NE,49,2.0,4.0,90,0.00,,,0.00,Wunderground v.1.15,2013-07-21 05:34:00,
2013-07-21 00:40:00,66.1,63.1,29.89,ENE,78,2.0,4.0,90,0.00,,,0.00,Wunderground v.1.15,2013-07-21 05:40:00,
2013-07-21 00:45:00,66.0,63.0,29.89,NE,52,1.0,1.0,90,0.00,,,0.00,Wunderground v.1.15,2013-07-21 05:45:00,
2013-07-21 00:49:00,66.0,63.0,29.90,ENE,78,1.0,4.0,90,0.00,,,0.00,Wunderground v.1.15,2013-07-21 05:49:00,
2013-07-21 00:54:00,65.9,63.2,29.90,ENE,68,1.0,1.0,91,0.00,,,0.00,Wunderground v.1.15,2013-07-21 05:54:00,
2013-07-21 01:00:00,65.8,63.1,29.89,ENE,68,1.0,1.0,91,0.00,,,0.00,Wunderground v.1.15,2013-07-21 06:00:00,
2013-07-21 01:10:00,65.6,62.9,29.88,ENE,69,1.0,1.0,91,0.00,,,0.00,Wunderground v.1.15,2013-07-21 06:10:00,
2013-07-21 01:15:00,65.5,62.8,29.88,NE,46,1.0,2.0,91,0.00,,,0.00,Wunderground v.1.15,2013-07-21 06:15:00,
2013-07-21 01:20:00,65.4,62.7,29.88,ENE,74,1.0,2.0,91,0.00,,,0.00,Wunderground v.1.15,2013-07-21 06:20:00,
2013-07-21 01:25:00,65.3,62.3,29.88,ENE,59,2.0,2.0,90,0.00,,,0.00,Wunderground v.1.15,2013-07-21 06:25:00,
2013-07-21 01:30:00,65.3,62.3,29.88,ENE,69,1.0,1.0,90,0.00,,,0.00,Wunderground v.1.15,2013-07-21 06:30:00,
2013-07-21 01:35:00,65.2,62.2,29.88,ENE,69,1.0,2.0,90,0.00,,,0.00,Wunderground v.1.15,2013-07-21 06:35:00,
2013-07-21 01:40:00,65.2,62.2,29.88,NE,53,1.0,2.0,90,0.00,,,0.00,Wunderground v.1.15,2013-07-21 06:40:00,
2013-07-21 01:45:00,65.2,62.2,29.87,ESE,103,2.0,2.0,90,0.00,,,0.00,Wunderground v.1.15,2013-07-21 06:45:00,
2013-07-21 01:50:00,65.1,62.1,29.87,NE,40,2.0,2.0,90,0.00,,,0.00,Wunderground v.1.15,2013-07-21 06:50:00,
2013-07-21 01:55:00,65.1,62.1,29.88,ENE,60,1.0,4.0,90,0.00,,,0.00,Wunderground v.1.15,2013-07-21 06:55:00,
2013-07-21 02:00:00,65.0,62.0,29.88,ENE,71,1.0,1.0,90,0.00,,,0.00,Wunderground v.1.15,2013-07-21 07:00:00,
2013-07-21 02:10:00,64.9,61.9,29.88,East,87,1.0,1.0,90,0.00,,,0.00,Wunderground v.1.15,2013-07-21 07:10:00,
2013-07-21 02:15:00,64.9,61.9,29.89,ESE,107,1.0,1.0,90,0.00,,,0.00,Wunderground v.1.15,2013-07-21 07:15:00,
2013-07-21 02:20:00,64.8,61.8,29.89,East,92,1.0,1.0,90,0.00,,,0.00,Wunderground v.1.15,2013-07-21 07:20:00,
2013-07-21 02:25:00,64.8,61.8,29.88,ENE,74,1.0,1.0,90,0.00,,,0.00,Wunderground v.1.15,2013-07-21 07:25:00,
2013-07-21 02:30:00,64.7,61.7,29.88,ENE,72,1.0,1.0,90,0.00,,,0.00,Wunderground v.1.15,2013-07-21 07:30:00,
2013-07-21 02:40:00,64.7,61.7,29.88,ENE,58,1.0,2.0,90,0.00,,,0.00,Wunderground v.1.15,2013-07-21 07:40:00,
2013-07-21 02:45:00,64.7,61.7,29.89,ENE,59,1.0,2.0,90,0.00,,,0.00,Wunderground v.1.15,2013-07-21 07:45:00,
2013-07-21 02:50:00,64.6,61.3,29.89,East,80,1.0,4.0,89,0.00,,,0.00,Wunderground v.1.15,2013-07-21 07:50:00,
2013-07-21 02:55:00,64.6,61.3,29.89,ENE,60,1.0,4.0,89,0.00,,,0.00,Wunderground v.1.15,2013-07-21 07:55:00,
2013-07-21 03:00:00,64.5,61.2,29.88,NE,54,1.0,1.0,89,0.00,,,0.00,Wunderground v.1.15,2013-07-21 08:00:00,
2013-07-21 03:05:00,64.5,61.2,29.89,East,82,1.0,1.0,89,0.00,,,0.00,Wunderground v.1.15,2013-07-21 08:05:00,
2013-07-21 03:10:00,64.4,61.1,29.88,East,96,1.0,1.0,89,0.00,,,0.00,Wunderground v.1.15,2013-07-21 08:10:00,
2013-07-21 03:15:00,64.4,61.1,29.88,ENE,63,1.0,1.0,89,0.00,,,0.00,Wunderground v.1.15,2013-07-21 08:15:00,
2013-07-21 03:20:00,64.3,61.0,29.88,ENE,62,1.0,1.0,89,0.00,,,0.00,Wunderground v.1.15,2013-07-21 08:20:00,
2013-07-21 03:25:00,64.2,60.9,29.88,ENE,72,1.0,1.0,89,0.00,,,0.00,Wunderground v.1.15,2013-07-21 08:25:00,
2013-07-21 03:30:00,64.2,60.9,29.88,ENE,62,1.0,1.0,89,0.00,,,0.00,Wunderground v.1.15,2013-07-21 08:30:00,
2013-07-21 03:35:00,64.1,60.8,29.88,ENE,78,1.0,1.0,89,0.00,,,0.00,Wunderground v.1.15,2013-07-21 08:35:00,
2013-07-21 03:40:00,64.1,60.8,29.88,ENE,63,1.0,2.0,89,0.00,,,0.00,Wunderground v.1.15,2013-07-21 08:40:00,
2013-07-21 03:45:00,64.1,60.8,29.88,ENE,57,1.0,2.0,89,0.00,,,0.00,Wunderground v.1.15,2013-07-21 08:45:00,
2013-07-21 03:50:00,64.0,60.7,29.88,East,80,1.0,3.0,89,0.00,,,0.00,Wunderground v.1.15,2013-07-21 08:50:00,
2013-07-21 04:00:00,64.0,60.7,29.88,ENE,62,1.0,1.0,89,0.00,,,0.00,Wunderground v.1.15,2013-07-21 09:00:00,
2013-07-21 04:05:00,64.0,60.7,29.89,NE,49,1.0,1.0,89,0.00,,,0.00,Wunderground v.1.15,2013-07-21 09:05:00,
2013-07-21 04:10:00,64.0,60.7,29.89,East,88,1.0,1.0,89,0.00,,,0.00,Wunderground v.1.15,2013-07-21 09:10:00,
2013-07-21 04:15:00,64.0,61.0,29.89,ENE,64,1.0,1.0,90,0.00,,,0.00,Wunderground v.1.15,2013-07-21 09:15:00,
2013-07-21 04:20:00,64.0,61.0,29.88,NE,37,2.0,2.0,90,0.00,,,0.00,Wunderground v.1.15,2013-07-21 09:20:00,
2013-07-21 04:25:00,64.1,61.1,29.88,NE,47,2.0,2.0,90,0.00,,,0.00,Wunderground v.1.15,2013-07-21 09:25:00,
2013-07-21 04:35:00,64.3,61.0,29.88,ENE,69,2.0,2.0,89,0.00,,,0.00,Wunderground v.1.15,2013-07-21 09:35:00,
2013-07-21 04:40:00,64.4,61.1,29.88,ENE,63,2.0,2.0,89,0.00,,,0.00,Wunderground v.1.15,2013-07-21 09:40:00,
2013-07-21 04:45:00,64.4,61.1,29.88,East,92,2.0,2.0,89,0.00,,,0.00,Wunderground v.1.15,2013-07-21 09:45:00,
2013-07-21 04:50:00,64.4,61.1,29.88,NE,46,2.0,4.0,89,0.00,,,0.00,Wunderground v.1.15,2013-07-21 09:50:00,
2013-07-21 05:00:00,64.4,61.1,29.88,East,88,2.0,2.0,89,0.00,,,0.00,Wunderground v.1.15,2013-07-21 10:00:00,
2013-07-21 05:10:00,64.5,61.2,29.88,East,100,2.0,2.0,89,0.00,,,0.00,Wunderground v.1.15,2013-07-21 10:10:00,
2013-07-21 05:15:00,64.6,61.3,29.88,ENE,59,2.0,2.0,89,0.00,,,0.00,Wunderground v.1.15,2013-07-21 10:15:00,
2013-07-21 05:20:00,64.7,61.4,29.88,East,84,2.0,2.0,89,0.00,,,0.00,Wunderground v.1.15,2013-07-21 10:20:00,
2013-07-21 05:25:00,64.7,61.4,29.88,ESE,102,2.0,2.0,89,0.00,,,0.00,Wunderground v.1.15,2013-07-21 10:25:00,
2013-07-21 05:30:00,64.7,61.4,29.88,ESE,103,2.0,3.0,89,0.00,,,0.00,Wunderground v.1.15,2013-07-21 10:30:00,
2013-07-21 05:35:00,64.8,61.5,29.89,ENE,62,1.0,3.0,89,0.00,,,0.00,Wunderground v.1.15,2013-07-21 10:35:00,
2013-07-21 05:40:00,64.8,61.5,29.89,NE,53,2.0,2.0,89,0.00,,,0.00,Wunderground v.1.15,2013-07-21 10:40:00,
2013-07-21 05:50:00,64.9,61.6,29.89,East,90,1.0,5.0,89,0.00,,,0.00,Wunderground v.1.15,2013-07-21 10:50:00,
2013-07-21 05:55:00,65.0,61.7,29.89,East,88,1.0,5.0,89,0.00,,,0.00,Wunderground v.1.15,2013-07-21 10:55:00,
2013-07-21 06:00:00,65.0,61.7,29.89,ENE,62,1.0,1.0,89,0.00,,,0.00,Wunderground v.1.15,2013-07-21 11:00:00,
2013-07-21 06:05:00,65.1,61.8,29.89,East,92,2.0,2.0,89,0.00,,,0.00,Wunderground v.1.15,2013-07-21 11:05:00,
2013-07-21 06:10:00,65.1,61.8,29.89,East,101,1.0,1.0,89,0.00,,,0.00,Wunderground v.1.15,2013-07-21 11:10:00,
2013-07-21 06:15:00,65.2,61.9,29.89,ENE,66,1.0,1.0,89,0.00,,,0.00,Wunderground v.1.15,2013-07-21 11:15:00,
2013-07-21 06:20:00,65.2,61.9,29.89,ENE,61,2.0,2.0,89,0.00,,,0.00,Wunderground v.1.15,2013-07-21 11:20:00,
2013-07-21 06:25:00,65.3,62.0,29.89,East,95,2.0,2.0,89,0.00,,,0.00,Wunderground v.1.15,2013-07-21 11:25:00,
2013-07-21 06:30:00,65.4,62.1,29.89,ENE,69,1.0,2.0,89,0.00,,,0.00,Wunderground v.1.15,2013-07-21 11:30:00,
2013-07-21 06:35:00,65.6,62.3,29.89,ENE,65,1.0,2.0,89,0.00,,,0.00,Wunderground v.1.15,2013-07-21 11:35:00,
2013-07-21 06:40:00,65.7,62.0,29.89,ENE,71,2.0,2.0,88,0.00,,,0.00,Wunderground v.1.15,2013-07-21 11:40:00,
2013-07-21 06:45:00,65.9,62.2,29.89,ESE,115,2.0,2.0,88,0.00,,,0.00,Wunderground v.1.15,2013-07-21 11:45:00,
2013-07-21 06:50:00,66.0,62.3,29.89,East,88,2.0,5.0,88,0.00,,,0.00,Wunderground v.1.15,2013-07-21 11:50:00,
2013-07-21 06:55:00,66.3,62.6,29.89,ENE,69,2.0,5.0,88,0.00,,,0.00,Wunderground v.1.15,2013-07-21 11:55:00,
2013-07-21 07:00:00,66.5,62.8,29.89,ESE,115,2.0,4.0,88,0.00,,,0.00,Wunderground v.1.15,2013-07-21 12:00:00,
2013-07-21 07:05:00,66.8,63.1,29.90,ESE,113,3.0,4.0,88,0.00,,,0.00,Wunderground v.1.15,2013-07-21 12:05:00,
2013-07-21 07:10:00,67.1,63.1,29.90,East,100,3.0,3.0,87,0.00,,,0.00,Wunderground v.1.15,2013-07-21 12:10:00,
2013-07-21 07:15:00,67.5,63.5,29.90,ESE,117,2.0,3.0,87,0.00,,,0.00,Wunderground v.1.15,2013-07-21 12:15:00,
2013-07-21 07:20:00,67.9,63.9,29.90,East,94,2.0,2.0,87,0.00,,,0.00,Wunderground v.1.15,2013-07-21 12:20:00,
2013-07-21 07:25:00,68.3,63.9,29.90,East,84,2.0,2.0,86,0.00,,,0.00,Wunderground v.1.15,2013-07-21 12:25:00,
2013-07-21 07:30:00,68.7,64.3,29.90,ENE,59,2.0,2.0,86,0.00,,,0.00,Wunderground v.1.15,2013-07-21 12:30:00,
2013-07-21 07:35:00,69.0,64.3,29.90,ENE,66,3.0,4.0,85,0.00,,,0.00,Wunderground v.1.15,2013-07-21 12:35:00,
2013-07-21 07:45:00,69.6,64.5,29.90,East,80,3.0,3.0,84,0.00,,,0.00,Wunderground v.1.15,2013-07-21 12:45:00,
2013-07-21 07:50:00,69.9,64.8,29.90,East,98,3.0,3.0,84,0.00,,,0.00,Wunderground v.1.15,2013-07-21 12:50:00,
2013-07-21 07:55:00,70.2,65.1,29.90,East,92,3.0,5.0,84,0.00,,,0.00,Wunderground v.1.15,2013-07-21 12:55:00,
2013-07-21 08:00:00,70.6,65.2,29.91,East,96,3.0,5.0,83,0.00,,,0.00,Wunderground v.1.15,2013-07-21 13:00:00,
2013-07-21 08:05:00,70.8,65.0,29.90,East,90,4.0,5.0,82,0.00,,,0.00,Wunderground v.1.15,2013-07-21 13:05:00,
2013-07-21 08:10:00,71.1,65.7,29.91,ENE,77,4.0,4.0,83,0.00,,,0.00,Wunderground v.1.15,2013-07-21 13:10:00,
2013-07-21 08:15:00,71.5,66.1,29.90,ENE,62,3.0,4.0,83,0.00,,,0.00,Wunderground v.1.15,2013-07-21 13:15:00,
2013-07-21 08:20:00,72.0,66.2,29.90,ENE,78,3.0,3.0,82,0.00,,,0.00,Wunderground v.1.15,2013-07-21 13:20:00,
2013-07-21 08:25:00,72.5,66.3,29.90,East,88,4.0,6.0,81,0.00,,,0.00,Wunderground v.1.15,2013-07-21 13:25:00,
2013-07-21 08:30:00,73.1,66.9,29.89,East,94,4.0,6.0,81,0.00,,,0.00,Wunderground v.1.15,2013-07-21 13:30:00,
2013-07-21 08:35:00,73.5,67.3,29.90,SE,125,4.0,6.0,81,0.00,,,0.00,Wunderground v.1.15,2013-07-21 13:35:00,
2013-07-21 08:40:00,73.6,67.0,29.90,East,84,3.0,5.0,80,0.00,,,0.00,Wunderground v.1.15,2013-07-21 13:40:00,
2013-07-21 08:45:00,73.4,66.9,29.90,ESE,111,4.0,5.0,80,0.00,,,0.00,Wunderground v.1.15,2013-07-21 13:45:00,
2013-07-21 08:50:00,73.6,67.0,29.90,ENE,75,4.0,8.0,80,0.00,,,0.00,Wunderground v.1.15,2013-07-21 13:50:00,
2013-07-21 08:55:00,74.1,67.2,29.90,East,88,4.0,8.0,79,0.00,,,0.00,Wunderground v.1.15,2013-07-21 13:55:00,
2013-07-21 09:00:00,74.3,67.4,29.90,East,95,4.0,4.0,79,0.00,,,0.00,Wunderground v.1.15,2013-07-21 14:00:00,
2013-07-21 09:05:00,74.7,68.1,29.91,East,92,3.0,4.0,80,0.00,,,0.00,Wunderground v.1.15,2013-07-21 14:05:00,
2013-07-21 09:15:00,75.6,67.9,29.91,ESE,117,3.0,4.0,77,0.00,,,0.00,Wunderground v.1.15,2013-07-21 14:15:00,
2013-07-21 09:20:00,76.1,68.0,29.91,SE,145,3.0,3.0,76,0.00,,,0.00,Wunderground v.1.15,2013-07-21 14:20:00,
2013-07-21 09:25:00,76.4,68.3,29.91,ESE,104,3.0,3.0,76,0.00,,,0.00,Wunderground v.1.15,2013-07-21 14:25:00,
2013-07-21 09:30:00,76.4,68.7,29.91,ENE,75,3.0,3.0,77,0.00,,,0.00,Wunderground v.1.15,2013-07-21 14:30:00,
2013-07-21 09:35:00,76.7,68.6,29.91,SE,132,3.0,4.0,76,0.00,,,0.00,Wunderground v.1.15,2013-07-21 14:35:00,
2013-07-21 09:40:00,77.0,68.5,29.91,East,91,3.0,3.0,75,0.00,,,0.00,Wunderground v.1.15,2013-07-21 14:40:00,
2013-07-21 09:45:00,77.2,68.7,29.90,SE,136,3.0,3.0,75,0.00,,,0.00,Wunderground v.1.15,2013-07-21 14:45:00,
2013-07-21 09:50:00,77.5,68.9,29.91,SE,138,2.0,10.0,75,0.00,,,0.00,Wunderground v.1.15,2013-07-21 14:50:00,
2013-07-21 09:55:00,77.7,68.7,29.90,South,186,3.0,10.0,74,0.00,,,0.00,Wunderground v.1.15,2013-07-21 14:55:00,
2013-07-21 10:00:00,78.1,69.1,29.90,East,93,3.0,3.0,74,0.00,,,0.00,Wunderground v.1.15,2013-07-21 15:00:00,
2013-07-21 10:05:00,78.6,69.2,29.90,ESE,111,2.0,3.0,73,0.00,,,0.00,Wunderground v.1.15,2013-07-21 15:05:00,
2013-07-21 10:10:00,79.0,68.8,29.90,SE,146,2.0,5.0,71,0.00,,,0.00,Wunderground v.1.15,2013-07-21 15:10:00,
2013-07-21 10:15:00,79.2,69.4,29.90,SE,132,3.0,5.0,72,0.00,,,0.00,Wunderground v.1.15,2013-07-21 15:15:00,
2013-07-21 10:20:00,79.1,68.5,29.90,SE,140,3.0,3.0,70,0.00,,,0.00,Wunderground v.1.15,2013-07-21 15:20:00,
2013-07-21 10:25:00,79.2,69.0,29.90,ESE,111,3.0,3.0,71,0.00,,,0.00,Wunderground v.1.15,2013-07-21 15:25:00,
2013-07-21 10:30:00,79.8,69.6,29.90,SSW,197,3.0,3.0,71,0.00,,,0.00,Wunderground v.1.15,2013-07-21 15:30:00,
2013-07-21 10:40:00,80.6,68.6,29.90,SE,136,3.0,4.0,67,0.00,,,0.00,Wunderground v.1.15,2013-07-21 15:40:00,
2013-07-21 10:45:00,80.6,69.9,29.89,East,90,3.0,6.0,70,0.00,,,0.00,Wunderground v.1.15,2013-07-21 15:45:00,
2013-07-21 10:50:00,81.0,70.3,29.90,East,90,3.0,3.0,70,0.00,,,0.00,Wunderground v.1.15,2013-07-21 15:50:00,
2013-07-21 10:55:00,81.4,69.8,29.90,SE,132,3.0,7.0,68,0.00,,,0.00,Wunderground v.1.15,2013-07-21 15:55:00,
2013-07-21 11:00:00,81.6,69.1,29.90,East,92,3.0,3.0,66,0.00,,,0.00,Wunderground v.1.15,2013-07-21 16:00:00,
2013-07-21 11:05:00,81.9,69.4,29.90,ENE,78,3.0,7.0,66,0.00,,,0.00,Wunderground v.1.15,2013-07-21 16:05:00,
2013-07-21 11:10:00,82.1,69.2,29.90,WSW,246,2.0,2.0,65,0.00,,,0.00,Wunderground v.1.15,2013-07-21 16:10:00,
2013-07-21 11:15:00,81.9,69.0,29.90,ESE,111,2.0,5.0,65,0.00,,,0.00,Wunderground v.1.15,2013-07-21 16:15:00,
2013-07-21 11:20:00,81.8,69.8,29.90,SE,142,2.0,6.0,67,0.00,,,0.00,Wunderground v.1.15,2013-07-21 16:20:00,
2013-07-21 11:25:00,81.9,69.0,29.90,South,171,2.0,6.0,65,0.00,,,0.00,Wunderground v.1.15,2013-07-21 16:25:00,
2013-07-21 11:30:00,82.1,70.1,29.90,East,96,3.0,3.0,67,0.00,,,0.00,Wunderground v.1.15,2013-07-21 16:30:00,
2013-07-21 11:35:00,82.4,70.3,29.90,ESE,106,2.0,3.0,67,0.00,,,0.00,Wunderground v.1.15,2013-07-21 16:35:00,
2013-07-21 11:40:00,82.7,69.3,29.89,ESE,113,2.0,2.0,64,0.00,,,0.00,Wunderground v.1.15,2013-07-21 16:40:00,
2013-07-21 11:45:00,83.1,71.0,29.90,SSE,154,2.0,5.0,67,0.00,,,0.00,Wunderground v.1.15,2013-07-21 16:45:00,
2013-07-21 11:50:00,83.7,69.8,29.89,South,182,2.0,2.0,63,0.00,,,0.00,Wunderground v.1.15,2013-07-21 16:50:00,
2013-07-21 11:55:00,83.7,69.8,29.89,ENE,59,3.0,3.0,63,0.00,,,0.00,Wunderground v.1.15,2013-07-21 16:55:00,
2013-07-21 12:00:00,84.1,69.7,29.89,East,82,3.0,3.0,62,0.00,,,0.00,Wunderground v.1.15,2013-07-21 17:00:00,
2013-07-21 12:05:00,84.3,69.4,29.89,SE,145,3.0,3.0,61,0.00,,,0.00,Wunderground v.1.15,2013-07-21 17:05:00,
2013-07-21 12:10:00,84.4,70.4,29.89,SSE,150,3.0,4.0,63,0.00,,,0.00,Wunderground v.1.15,2013-07-21 17:10:00,
2013-07-21 12:15:00,84.4,69.5,29.89,South,186,2.0,4.0,61,0.00,,,0.00,Wunderground v.1.15,2013-07-21 17:15:00,
2013-07-21 12:20:00,84.4,70.0,29.88,SSW,212,2.0,2.0,62,0.00,,,0.00,Wunderground v.1.15,2013-07-21 17:20:00,
2013-07-21 12:25:00,84.7,69.8,29.88,SSE,166,2.0,2.0,61,0.00,,,0.00,Wunderground v.1.15,2013-07-21 17:25:00,
2013-07-21 12:30:00,84.8,71.7,29.88,South,189,2.0,5.0,65,0.00,,,0.00,Wunderground v.1.15,2013-07-21 17:30:00,
2013-07-21 12:35:00,84.6,69.7,29.88,SSE,167,2.0,5.0,61,0.00,,,0.00,Wunderground v.1.15,2013-07-21 17:35:00,
2013-07-21 12:40:00,84.7,69.3,29.88,SSW,192,3.0,3.0,60,0.00,,,0.00,Wunderground v.1.15,2013-07-21 17:40:00,
2013-07-21 12:45:00,84.8,71.7,29.88,South,179,3.0,3.0,65,0.00,,,0.00,Wunderground v.1.15,2013-07-21 17:45:00,
2013-07-21 12:55:00,85.9,70.9,29.87,East,82,2.0,6.0,61,0.00,,,0.00,Wunderground v.1.15,2013-07-21 17:55:00,
2013-07-21 13:00:00,86.3,70.8,29.87,SE,138,2.0,2.0,60,0.00,,,0.00,Wunderground v.1.15,2013-07-21 18:00:00,
2013-07-21 13:05:00,86.3,70.3,29.87,SW,219,2.0,4.0,59,0.00,,,0.00,Wunderground v.1.15,2013-07-21 18:05:00,
2013-07-21 13:10:00,85.4,69.9,29.87,ENE,67,2.0,2.0,60,0.00,,,0.00,Wunderground v.1.15,2013-07-21 18:10:00,
2013-07-21 13:15:00,85.2,69.7,29.87,East,84,2.0,3.0,60,0.00,,,0.00,Wunderground v.1.15,2013-07-21 18:15:00,
2013-07-21 13:20:00,85.0,70.0,29.87,East,88,2.0,3.0,61,0.00,,,0.00,Wunderground v.1.15,2013-07-21 18:20:00,
2013-07-21 13:25:00,85.0,70.0,29.87,East,96,2.0,3.0,61,0.00,,,0.00,Wunderground v.1.15,2013-07-21 18:25:00,
2013-07-21 13:30:00,84.9,70.4,29.86,SSW,207,2.0,4.0,62,0.00,,,0.00,Wunderground v.1.15,2013-07-21 18:30:00,
2013-07-21 13:35:00,85.2,71.2,29.86,East,84,3.0,4.0,63,0.00,,,0.00,Wunderground v.1.15,2013-07-21 18:35:00,
2013-07-21 13:40:00,85.4,70.9,29.86,ESE,112,3.0,3.0,62,0.00,,,0.00,Wunderground v.1.15,2013-07-21 18:40:00,
2013-07-21 13:45:00,85.6,70.1,29.86,South,180,2.0,4.0,60,0.00,,,0.00,Wunderground v.1.15,2013-07-21 18:45:00,
2013-07-21 13:50:00,85.4,70.4,29.86,ENE,63,2.0,2.0,61,0.00,,,0.00,Wunderground v.1.15,2013-07-21 18:50:00,
2013-07-21 13:55:00,85.2,70.7,29.85,SE,142,2.0,7.0,62,0.00,,,0.00,Wunderground v.1.15,2013-07-21 18:55:00,
2013-07-21 14:00:00,85.1,71.5,29.85,SE,127,3.0,3.0,64,0.00,,,0.00,Wunderground v.1.15,2013-07-21 19:00:00,
2013-07-21 14:05:00,85.1,70.6,29.85,East,82,2.0,5.0,62,0.00,,,0.00,Wunderground v.1.15,2013-07-21 19:05:00,
2013-07-21 14:10:00,85.0,69.6,29.85,SE,145,2.0,2.0,60,0.00,,,0.00,Wunderground v.1.15,2013-07-21 19:10:00,
2013-07-21 14:15:00,85.0,70.5,29.85,South,169,2.0,7.0,62,0.00,,,0.00,Wunderground v.1.15,2013-07-21 19:15:00,
2013-07-21 14:20:00,85.4,70.4,29.85,South,173,2.0,2.0,61,0.00,,,0.00,Wunderground v.1.15,2013-07-21 19:20:00,
2013-07-21 14:30:00,86.1,71.6,29.85,SSW,202,2.0,4.0,62,0.00,,,0.00,Wunderground v.1.15,2013-07-21 19:30:00,
2013-07-21 14:35:00,86.4,70.9,29.84,South,176,2.0,4.0,60,0.00,,,0.00,Wunderground v.1.15,2013-07-21 19:35:00,
2013-07-21 14:45:00,86.4,69.9,29.84,NNE,15,3.0,3.0,58,0.00,,,0.00,Wunderground v.1.15,2013-07-21 19:45:00,
2013-07-21 14:50:00,86.1,70.1,29.83,South,171,3.0,9.0,59,0.00,,,0.00,Wunderground v.1.15,2013-07-21 19:50:00,
2013-07-21 14:55:00,85.9,70.4,29.83,South,173,3.0,9.0,60,0.00,,,0.00,Wunderground v.1.15,2013-07-21 19:55:00,
2013-07-21 15:00:00,85.3,69.8,29.83,ESE,117,3.0,4.0,60,0.00,,,0.00,Wunderground v.1.15,2013-07-21 20:00:00,
2013-07-21 15:05:00,84.9,69.9,29.83,SSW,213,3.0,4.0,61,0.00,,,0.00,Wunderground v.1.15,2013-07-21 20:05:00,
2013-07-21 15:15:00,85.0,70.5,29.83,SSE,161,3.0,3.0,62,0.00,,,0.00,Wunderground v.1.15,2013-07-21 20:15:00,
2013-07-21 15:20:00,85.3,70.8,29.82,SSE,161,3.0,3.0,62,0.00,,,0.00,Wunderground v.1.15,2013-07-21 20:20:00,
2013-07-21 15:25:00,86.0,71.0,29.82,West,276,3.0,3.0,61,0.00,,,0.00,Wunderground v.1.15,2013-07-21 20:25:00,
2013-07-21 15:35:00,86.3,69.8,29.82,SSE,168,3.0,3.0,58,0.00,,,0.00,Wunderground v.1.15,2013-07-21 20:35:00,
2013-07-21 15:40:00,85.7,68.2,29.81,SSW,192,4.0,4.0,56,0.00,,,0.00,Wunderground v.1.15,2013-07-21 20:40:00,
2013-07-21 15:45:00,85.1,68.7,29.81,ESE,107,4.0,4.0,58,0.00,,,0.00,Wunderground v.1.15,2013-07-21 20:45:00,
2013-07-21 15:50:00,84.9,69.0,29.81,WSW,248,3.0,10.0,59,0.00,,,0.00,Wunderground v.1.15,2013-07-21 20:50:00,
2013-07-21 15:55:00,85.0,69.1,29.80,SSW,208,4.0,10.0,59,0.00,,,0.00,Wunderground v.1.15,2013-07-21 20:55:00,
2013-07-21 16:00:00,84.9,69.5,29.80,SSW,212,3.0,3.0,60,0.00,,,0.00,Wunderground v.1.15,2013-07-21 21:00:00,
2013-07-21 16:05:00,84.5,69.6,29.80,SW,217,2.0,3.0,61,0.00,,,0.00,Wunderground v.1.15,2013-07-21 21:05:00,
2013-07-21 16:15:00,83.8,68.9,29.80,South,188,2.0,6.0,61,0.00,,,0.00,Wunderground v.1.15,2013-07-21 21:15:00,
2013-07-21 16:20:00,83.6,69.2,29.80,SSW,196,2.0,3.0,62,0.00,,,0.00,Wunderground v.1.15,2013-07-21 21:20:00,
2013-07-21 16:25:00,83.5,68.6,29.80,SSW,212,4.0,5.0,61,0.00,,,0.00,Wunderground v.1.15,2013-07-21 21:25:00,
2013-07-21 16:30:00,83.4,69.0,29.80,WSW,240,4.0,6.0,62,0.00,,,0.00,Wunderground v.1.15,2013-07-21 21:30:00,
2013-07-21 16:35:00,83.3,69.4,29.80,WSW,242,4.0,6.0,63,0.00,,,0.00,Wunderground v.1.15,2013-07-21 21:35:00,
2013-07-21 16:40:00,83.2,69.3,29.80,South,183,4.0,4.0,63,0.00,,,0.00,Wunderground v.1.15,2013-07-21 21:40:00,
2013-07-21 16:45:00,82.5,68.2,29.80,SW,227,5.0,11.0,62,0.00,,,0.00,Wunderground v.1.15,2013-07-21 21:45:00,
2013-07-21 16:50:00,81.7,67.4,29.80,NW,310,6.0,9.0,62,0.00,,,0.00,Wunderground v.1.15,2013-07-21 21:50:00,
2013-07-21 16:55:00,81.2,67.4,29.79,SSW,210,5.0,9.0,63,0.00,,,0.00,Wunderground v.1.15,2013-07-21 21:55:00,
2013-07-21 17:00:00,81.0,67.2,29.80,WSW,253,4.0,4.0,63,0.00,,,0.00,Wunderground v.1.15,2013-07-21 22:00:00,
2013-07-21 17:05:00,81.1,67.8,29.80,WSW,254,3.0,4.0,64,0.00,,,0.00,Wunderground v.1.15,2013-07-21 22:05:00,
2013-07-21 17:10:00,81.2,66.5,29.81,West,267,2.0,2.0,61,0.00,,,0.00,Wunderground v.1.15,2013-07-21 22:10:00,
2013-07-21 17:15:00,81.3,67.0,29.81,SSW,196,3.0,3.0,62,0.00,,,0.00,Wunderground v.1.15,2013-07-21 22:15:00,
2013-07-21 17:20:00,81.4,67.6,29.81,West,265,2.0,2.0,63,0.00,,,0.00,Wunderground v.1.15,2013-07-21 22:20:00,
2013-07-21 17:25:00,81.4,68.5,29.81,West,259,1.0,2.0,65,0.00,,,0.00,Wunderground v.1.15,2013-07-21 22:25:00,
2013-07-21 17:35:00,81.1,67.8,29.82,WSW,252,1.0,2.0,64,0.00,,,0.00,Wunderground v.1.15,2013-07-21 22:35:00,
2013-07-21 17:40:00,80.9,68.0,29.82,WSW,252,1.0,1.0,65,0.00,,,0.00,Wunderground v.1.15,2013-07-21 22:40:00,
2013-07-21 17:45:00,80.8,67.5,29.83,WSW,254,0.0,1.0,64,0.00,,,0.00,Wunderground v.1.15,2013-07-21 22:45:00,
2013-07-21 17:50:00,80.6,67.3,29.83,WSW,254,0.0,12.0,64,0.00,,,0.00,Wunderground v.1.15,2013-07-21 22:50:00,
2013-07-21 17:55:00,80.4,68.0,29.83,NNW,335,0.0,12.0,66,0.00,,,0.00,Wunderground v.1.15,2013-07-21 22:55:00,
2013-07-21 18:00:00,80.2,68.7,29.84,NNW,343,0.0,0.0,68,0.00,,,0.00,Wunderground v.1.15,2013-07-21 23:00:00,
2013-07-21 18:10:00,77.4,66.8,29.86,NNE,28,5.0,8.0,70,0.00,,,0.00,Wunderground v.1.15,2013-07-21 23:10:00,
2013-07-21 18:15:00,75.1,66.2,29.86,North,355,7.0,18.0,74,0.00,,,0.00,Wunderground v.1.15,2013-07-21 23:15:00,
2013-07-21 18:20:00,73.3,66.0,29.86,NNE,20,8.0,8.0,78,0.00,,,0.00,Wunderground v.1.15,2013-07-21 23:20:00,
2013-07-21 18:25:00,72.2,65.0,29.85,North,355,7.0,8.0,78,0.00,,,0.00,Wunderground v.1.15,2013-07-21 23:25:00,
2013-07-21 18:30:00,71.3,64.8,29.85,NE,36,6.0,8.0,80,0.00,,,0.00,Wunderground v.1.15,2013-07-21 23:30:00,
2013-07-21 18:35:00,70.8,65.4,29.86,NNW,338,6.0,8.0,83,0.00,,,0.00,Wunderground v.1.15,2013-07-21 23:35:00,
2013-07-21 18:40:00,70.3,64.9,29.86,ENE,59,6.0,6.0,83,0.00,,,0.00,Wunderground v.1.15,2013-07-21 23:40:00,
2013-07-21 18:45:00,69.8,64.7,29.86,North,355,5.0,7.0,84,0.00,,,0.00,Wunderground v.1.15,2013-07-21 23:45:00,
2013-07-21 18:50:00,69.6,65.2,29.86,NNE,32,5.0,5.0,86,0.00,,,0.00,Wunderground v.1.15,2013-07-21 23:50:00,
2013-07-21 18:55:00,69.4,65.0,29.86,North,5,4.0,10.0,86,0.00,,,0.00,Wunderground v.1.15,2013-07-21 23:55:00,
2013-07-21 19:00:00,69.0,64.3,29.85,North,5,5.0,5.0,85,0.00,,,0.00,Wunderground v.1.15,2013-07-22 00:00:00,
2013-07-21 19:10:00,68.7,64.7,29.86,NE,50,4.0,4.0,87,0.00,,,0.00,Wunderground v.1.15,2013-07-22 00:10:00,
2013-07-21 19:15:00,68.6,64.6,29.85,NNE,22,4.0,4.0,87,0.00,,,0.00,Wunderground v.1.15,2013-07-22 00:15:00,
2013-07-21 19:20:00,68.6,64.6,29.86,ENE,68,3.0,3.0,87,0.00,,,0.00,Wunderground v.1.15,2013-07-22 00:20:00,
2013-07-21 19:25:00,68.6,64.6,29.86,ENE,72,3.0,3.0,87,0.00,,,0.00,Wunderground v.1.15,2013-07-22 00:25:00,
2013-07-21 19:30:00,68.5,64.8,29.86,NNE,31,4.0,4.0,88,0.00,,,0.00,Wunderground v.1.15,2013-07-22 00:30:00,
2013-07-21 19:35:00,68.4,64.7,29.86,NNE,17,4.0,4.0,88,0.00,,,0.00,Wunderground v.1.15,2013-07-22 00:35:00,
2013-07-21 19:40:00,68.4,65.0,29.85,ENE,62,3.0,3.0,89,0.00,,,0.00,Wunderground v.1.15,2013-07-22 00:40:00,
2013-07-21 19:45:00,68.3,64.9,29.85,North,360,4.0,5.0,89,0.00,,,0.00,Wunderground v.1.15,2013-07-22 00:45:00,
2013-07-21 19:50:00,68.3,64.9,29.85,ESE,105,4.0,13.0,89,0.00,,,0.00,Wunderground v.1.15,2013-07-22 00:50:00,
2013-07-21 19:55:00,68.2,64.8,29.85,ENE,61,5.0,13.0,89,0.00,,,0.00,Wunderground v.1.15,2013-07-22 00:55:00,
2013-07-21 20:00:00,68.2,64.8,29.85,East,80,4.0,4.0,89,0.00,,,0.00,Wunderground v.1.15,2013-07-22 01:00:00,
2013-07-21 20:05:00,68.1,64.7,29.85,ENE,73,4.0,4.0,89,0.00,,,0.00,Wunderground v.1.15,2013-07-22 01:05:00,
2013-07-21 20:10:00,68.0,64.6,29.85,NE,50,5.0,6.0,89,0.00,,,0.00,Wunderground v.1.15,2013-07-22 01:10:00,
2013-07-21 20:15:00,68.0,64.6,29.85,NE,54,5.0,6.0,89,0.00,,,0.00,Wunderground v.1.15,2013-07-22 01:15:00,
2013-07-21 20:20:00,67.9,64.9,29.85,NE,52,4.0,6.0,90,0.00,,,0.00,Wunderground v.1.15,2013-07-22 01:20:00,
2013-07-21 20:25:00,67.9,64.9,29.85,ENE,66,3.0,6.0,90,0.00,,,0.00,Wunderground v.1.15,2013-07-22 01:25:00,
2013-07-21 20:30:00,67.8,64.8,29.85,East,100,3.0,6.0,90,0.00,,,0.00,Wunderground v.1.15,2013-07-22 01:30:00,
2013-07-21 20:35:00,67.8,64.8,29.85,ENE,72,3.0,6.0,90,0.00,,,0.00,Wunderground v.1.15,2013-07-22 01:35:00,
2013-07-21 20:40:00,67.7,64.7,29.85,East,88,3.0,3.0,90,0.00,,,0.00,Wunderground v.1.15,2013-07-22 01:40:00,
2013-07-21 20:45:00,67.7,64.7,29.85,East,83,2.0,3.0,90,0.00,,,0.00,Wunderground v.1.15,2013-07-22 01:45:00,
2013-07-21 20:50:00,67.7,64.7,29.85,ENE,76,2.0,12.0,90,0.00,,,0.00,Wunderground v.1.15,2013-07-22 01:50:00,
2013-07-21 20:55:00,67.6,64.6,29.85,NE,56,2.0,12.0,90,0.00,,,0.00,Wunderground v.1.15,2013-07-22 01:55:00,
2013-07-21 21:00:00,67.6,64.6,29.85,NE,41,3.0,3.0,90,0.00,,,0.00,Wunderground v.1.15,2013-07-22 02:00:00,
2013-07-21 21:05:00,67.6,64.6,29.85,ENE,73,3.0,3.0,90,0.00,,,0.00,Wunderground v.1.15,2013-07-22 02:05:00,
2013-07-21 21:10:00,67.6,64.6,29.85,ENE,78,3.0,4.0,90,0.00,,,0.00,Wunderground v.1.15,2013-07-22 02:10:00,
2013-07-21 21:15:00,67.5,64.5,29.85,ENE,71,3.0,4.0,90,0.00,,,0.00,Wunderground v.1.15,2013-07-22 02:15:00,
2013-07-21 21:20:00,67.4,64.4,29.85,ENE,75,3.0,4.0,90,0.00,,,0.00,Wunderground v.1.15,2013-07-22 02:20:00,
2013-07-21 21:25:00,67.3,64.3,29.86,NE,55,3.0,5.0,90,0.00,,,0.00,Wunderground v.1.15,2013-07-22 02:25:00,
2013-07-21 21:30:00,67.2,64.2,29.86,East,92,3.0,3.0,90,0.00,,,0.00,Wunderground v.1.15,2013-07-22 02:30:00,
2013-07-21 21:35:00,67.2,64.2,29.87,East,81,2.0,5.0,90,0.00,,,0.00,Wunderground v.1.15,2013-07-22 02:35:00,
2013-07-21 21:40:00,67.1,64.1,29.86,ESE,103,2.0,2.0,90,0.00,,,0.00,Wunderground v.1.15,2013-07-22 02:40:00,
2013-07-21 21:45:00,67.0,64.0,29.86,ENE,78,2.0,2.0,90,0.00,,,0.00,Wunderground v.1.15,2013-07-22 02:45:00,
2013-07-21 21:50:00,67.0,64.0,29.86,ENE,76,2.0,9.0,90,0.00,,,0.00,Wunderground v.1.15,2013-07-22 02:50:00,
2013-07-21 21:55:00,66.9,63.9,29.85,East,89,3.0,9.0,90,0.00,,,0.00,Wunderground v.1.15,2013-07-22 02:55:00,
2013-07-21 22:00:00,66.8,63.8,29.85,SE,140,4.0,4.0,90,0.00,,,0.00,Wunderground v.1.15,2013-07-22 03:00:00,
2013-07-21 22:05:00,66.7,63.7,29.85,East,84,4.0,4.0,90,0.00,,,0.00,Wunderground v.1.15,2013-07-22 03:05:00,
2013-07-21 22:10:00,66.7,63.7,29.85,East,101,2.0,2.0,90,0.00,,,0.00,Wunderground v.1.15,2013-07-22 03:10:00,
2013-07-21 22:15:00,66.6,63.6,29.85,East,84,2.0,2.0,90,0.00,,,0.00,Wunderground v.1.15,2013-07-22 03:15:00,
2013-07-21 22:20:00,66.6,63.9,29.85,ESE,107,2.0,2.0,91,0.00,,,0.00,Wunderground v.1.15,2013-07-22 03:20:00,
2013-07-21 22:25:00,66.5,63.8,29.84,East,96,2.0,2.0,91,0.00,,,0.00,Wunderground v.1.15,2013-07-22 03:25:00,
2013-07-21 22:30:00,66.3,63.6,29.84,East,90,2.0,2.0,91,0.00,,,0.00,Wunderground v.1.15,2013-07-22 03:30:00,
2013-07-21 22:35:00,66.3,63.6,29.84,ENE,70,2.0,2.0,91,0.00,,,0.00,Wunderground v.1.15,2013-07-22 03:35:00,
2013-07-21 22:40:00,66.2,63.5,29.84,ENE,76,2.0,2.0,91,0.00,,,0.00,Wunderground v.1.15,2013-07-22 03:40:00,
2013-07-21 22:45:00,66.2,63.8,29.84,East,94,2.0,2.0,92,0.00,,,0.00,Wunderground v.1.15,2013-07-22 03:45:00,
2013-07-21 22:50:00,66.1,63.7,29.84,East,90,2.0,7.0,92,0.00,,,0.00,Wunderground v.1.15,2013-07-22 03:50:00,
2013-07-21 22:55:00,66.1,63.7,29.84,ENE,74,2.0,7.0,92,0.00,,,0.00,Wunderground v.1.15,2013-07-22 03:55:00,
2013-07-21 23:00:00,66.0,63.6,29.84,East,90,2.0,3.0,92,0.00,,,0.00,Wunderground v.1.15,2013-07-22 04:00:00,
2013-07-21 23:05:00,66.0,63.6,29.84,ESE,117,2.0,3.0,92,0.00,,,0.00,Wunderground v.1.15,2013-07-22 04:05:00,
2013-07-21 23:10:00,65.9,63.8,29.84,East,94,2.0,2.0,93,0.00,,,0.00,Wunderground v.1.15,2013-07-22 04:10:00,
2013-07-21 23:15:00,65.9,63.8,29.83,East,96,2.0,2.0,93,0.00,,,0.00,Wunderground v.1.15,2013-07-22 04:15:00,
2013-07-21 23:20:00,65.9,63.8,29.83,East,94,1.0,1.0,93,0.00,,,0.00,Wunderground v.1.15,2013-07-22 04:20:00,
2013-07-21 23:25:00,66.0,63.9,29.84,ESE,112,2.0,2.0,93,0.00,,,0.00,Wunderground v.1.15,2013-07-22 04:25:00,
2013-07-21 23:30:00,66.0,63.9,29.84,East,94,2.0,2.0,93,0.00,,,0.00,Wunderground v.1.15,2013-07-22 04:30:00,
2013-07-21 23:35:00,66.0,63.9,29.84,East,92,2.0,2.0,93,0.00,,,0.00,Wunderground v.1.15,2013-07-22 04:35:00,
2013-07-21 23:40:00,66.0,63.9,29.84,East,89,1.0,1.0,93,0.00,,,0.00,Wunderground v.1.15,2013-07-22 04:40:00,
2013-07-21 23:45:00,66.0,63.9,29.84,East,90,0.0,1.0,93,0.00,,,0.00,Wunderground v.1.15,2013-07-22 04:45:00,
2013-07-21 23:50:00,66.0,63.9,29.84,East,90,0.0,5.0,93,0.00,,,0.00,Wunderground v.1.15,2013-07-22 04:50:00,
2013-07-21 23:55:00,66.0,63.6,29.84,East,90,1.0,5.0,92,0.00,,,0.00,Wunderground v.1.15,2013-07-22 04:55:00,